Starlink 3585

operational
NORAD ID: 51875 Int'l Des: 2022-022 Owner: SPXS Country: US Constellation: starlink
LEOCIRCULAR

关于 Starlink 3585

正在加载描述...

实时位置

正在加载3D地球...

即将过境

高度历史

Altitude vs Time

uPlot chart will show altitude changes over time

两行轨道根数

1 51875U 22022Z 26093.82610816 -.00000128 00000-0 10037-4 0 9993
2 51875 53.2162 256.1933 0001394 112.5216 247.5924 15.08834421226910
Epoch: Apr 3, 2026 • Age: 8 hours

当前状态

高度 557.1 km
速度 7.58 km/s
星下点 -47.88°S, 45.19°W
发射日期 Mar 3, 2022
运行时间 4 years
类型 internet

技术详情

分类 Payload
质量 297.00 kg
干质量 275.00 kg
总质量 297.00 kg
长度 0.20 m
直径 2.80 m
跨度 9.00 m
形状 Box + pan
制造商 SPXS
平台类型 Starlink
阶段状态 In Orbit
所有者/国家 SPXS/US

大型星座

Loading constellations...